Grand Island, NE

2:08 AM CDT on September 01, 2016 (GMT -0500)
Central Nebraska Regional

Weather History for KGRI - April, 2013

Change the Weather History Date:

Sunday, April 21, 2013

  Actual Average Record
Temperature  
Mean Temperature 54 °F 53 °F  
Max Temperature 71 °F 65 °F 93 °F (1989)
Min Temperature 36 °F 40 °F 22 °F (1982)
Degree Days  
Heating Degree Days 11 13  
Month to date heating degree days 458 343  
Since 1 July heating degree days 5815 5900  
Cooling Degree Days 0 1  
Month to date cooling degree days 0 2  
Year to date cooling degree days 0 2  
Growing Degree Days 4 (Base 50)    
Moisture  
Dew Point 38 °F    
Average Humidity 60    
Maximum Humidity 89    
Minimum Humidity 31    
Precipitation  
Precipitation 0.04 in 0.09 in 1.78 in (1984)
Month to date precipitation 2.99 1.62  
Year to date precipitation 5.76 4.63  
Snow  
Snow 0.00 in 0.00 in 0.70 in (1992)
Month to date snowfall 6.9 1.3  
Since 1 July snowfall 34.5 28.8  
Snow Depth 0.00 in    
Sea Level Pressure  
Sea Level Pressure 30.05 in    
Wind  
Wind Speed 14 mph (South)    
Max Wind Speed 33 mph    
Max Gust Speed 47 mph    
Visibility 10 miles    
Events Rain    
T = Trace of Precipitation, MM = Missing Value Source: NWS Daily Summary

Daily Weather History Graph

Daily Weather History Graph

Search for Another Location

Airport or City:

Trip Planner

Search our weather history database for the weather conditions in past years. The results will help you decide how hot, cold, wet, or windy it might be!

Date:

Astronomy

Apr. 21, 2013 Rise Set
Actual Time 6:44 AM CDT 8:19 PM CDT
Civil Twilight 6:15 AM CDT 8:48 PM CDT
Nautical Twilight 5:40 AM CDT 9:23 PM CDT
Astronomical Twilight 5:03 AM CDT 10:01 PM CDT
Moon 4:04 PM CDT (4/21) 4:09 AM CDT (4/21)
Length of Visible Light 14h 32m
Length of Day
13h 34m
Waxing Gibbous, 80% of the Moon is Illuminated
Apr 21
Waxing Gibbous
Apr 25
Full
May 2
Last Quarter
May 9
New
May 17
First Quarter

Hourly Weather History & Observations

Time (CDT) Temp. Windchill Dew Point Humidity Pressure Visibility Wind Dir Wind Speed Gust Speed Precip Events Conditions
12:53 AM 39.0 °F 32.8 °F 30.9 °F 73% 30.10 in 10.0 mi ESE 9.2 mph - N/A   Clear
1:53 AM 39.0 °F 32.3 °F 30.9 °F 73% 30.09 in 10.0 mi ESE 10.4 mph - N/A   Clear
2:53 AM 37.9 °F 32.1 °F 32.0 °F 79% 30.07 in 10.0 mi SE 8.1 mph - N/A   Clear
3:53 AM 37.9 °F 31.5 °F 33.1 °F 83% 30.06 in 10.0 mi SSE 9.2 mph - N/A   Clear
4:53 AM 37.9 °F 30.9 °F 33.1 °F 83% 30.05 in 10.0 mi SSE 10.4 mph - N/A   Clear
5:53 AM 37.0 °F 29.3 °F 34.0 °F 89% 30.05 in 10.0 mi South 11.5 mph - N/A   Clear
6:53 AM 37.0 °F 29.8 °F 34.0 °F 89% 30.06 in 10.0 mi South 10.4 mph - N/A   Clear
7:53 AM 39.9 °F 33.4 °F 36.0 °F 86% 30.08 in 10.0 mi South 10.4 mph - N/A   Clear
8:53 AM 46.9 °F - 39.0 °F 74% 30.07 in 10.0 mi South 12.7 mph - N/A   Clear
9:53 AM 54.0 °F - 37.9 °F 55% 30.05 in 10.0 mi SSW 18.4 mph 26.5 mph N/A   Clear
10:53 AM 55.9 °F - 37.0 °F 49% 30.04 in 10.0 mi South 21.9 mph 27.6 mph N/A   Scattered Clouds
11:53 AM 60.1 °F - 37.9 °F 44% 30.05 in 10.0 mi SW 20.7 mph 27.6 mph N/A   Mostly Cloudy
12:53 PM 63.0 °F - 37.9 °F 40% 30.03 in 10.0 mi SSW 18.4 mph - N/A   Mostly Cloudy
1:53 PM 68.0 °F - 37.9 °F 33% 30.00 in 10.0 mi SW 16.1 mph 24.2 mph N/A   Mostly Cloudy
2:53 PM 69.1 °F - 37.9 °F 32% 29.99 in 10.0 mi WSW 9.2 mph 19.6 mph N/A   Clear
3:53 PM 66.9 °F - 39.0 °F 36% 29.98 in 10.0 mi West 9.2 mph - N/A   Mostly Cloudy
4:53 PM 66.9 °F - 39.9 °F 37% 29.96 in 10.0 mi West 8.1 mph - 0.00 in Rain Light Rain
5:53 PM 64.0 °F - 39.9 °F 41% 29.99 in 10.0 mi North 15.0 mph 26.5 mph 0.00 in   Overcast
6:00 PM 62.6 °F - 44.6 °F 52% 29.98 in 10.0 mi NNW 12.7 mph - N/A   Overcast
6:53 PM 59.0 °F - 45.0 °F 60% 30.01 in 10.0 mi North 11.5 mph - N/A   Scattered Clouds
7:53 PM 55.9 °F - 46.9 °F 72% 30.06 in 8.0 mi Calm Calm - 0.01 in Rain Light Rain
8:53 PM 52.0 °F - 46.9 °F 83% 30.05 in 10.0 mi NE 13.8 mph - 0.01 in   Clear
9:53 PM 48.9 °F - 44.1 °F 83% 30.09 in 10.0 mi NNE 24.2 mph 29.9 mph N/A   Clear
10:53 PM 46.0 °F 38.5 °F 42.1 °F 86% 30.15 in 9.0 mi NNE 19.6 mph - 0.00 in Rain Light Rain
11:25 PM 44.6 °F 38.1 °F 42.8 °F 93% 30.15 in 10.0 mi NNE 13.8 mph - 0.00 in Rain Light Rain
11:53 PM 44.1 °F 35.9 °F 41.0 °F 89% 30.13 in 10.0 mi NE 19.6 mph - 0.02 in Rain Light Rain